COSMOS 1743

Last updated on Sat Aug 15 2026 00:02:07 GMT+0000 (Coordinated Universal Time)

1 16719U 86034A 26226.60209171 .00040168 00000+0 29964-3 0 9990 2 16719 82.5224 266.3612 0004819 94.2498 265.9316 15.72549495204956
UTC large
Height (km)
Speed (km/s)
/
Latitude / Longitude
Inclination (degrees)
Orbital Period (minutes)
Azimuth
Elevation
Range (km)
Doppler Factor

Next 0 passes for location: London (51.5072 / 0.1276)

No passes found over London.
COSMOS 1743